Temp
60 60 61 61 60 60 60 60 61 61 61 61 62 61 61 61 60 59 58 59 59 59
60 60 60 60 60 60 60 61 61 61 61 61 62 62 62 61 60 60 60 60 59 59
54 56 57 58 57 59 60 60 60 60 61 61 62 62 62 62 62 60 60 60 60 60
52 53 54 53 53 54 56 57 58 59 60 60 60 60 60 61 61 60 61 61 60 60
52 53 52 52 52 53 53 54 54 55 55 55 57 58 59 59 58 58 58 59 57 58
49 49 49 49 49 50 50 50 51 51 51 51 52 52 53 54 55 55 56 56 55 56
47 46 47 47 47 47 47 47 47 48 49 49 50 50 50 50 51 52 53 53 53 53
46 45 46 45 46 46 46 46 46 45 46 46 47 48 47 47 47 47 48 49 50 51
44 44 43 43 43 43 43 43 43 43 43 43 46 49 50 49 46 45 45 46 46 49
43 43 42 42 42 41 41 41 41 41 42 42 43 48 49 49 45 43 43 43 43 44
41 40 40 40 39 39 40 39 39 40 41 40 43 47 48 48 46 44 41 40 41 41
39 38 38 37 36 37 37 37 37 39 39 38 40 46 47 47 45 43 43 44 43 42
39 38 36 36 36 36 36 36 37 37 37 40 38 44 47 47 45 44 44 45 44 44
37 36 36 35 34 34 33 33 33 34 35 36 38 39 45 46 44 43 43 43 44 44
MSLP
1007.41 1008.01 1008.55 1008.77 1009.28 1009.90 1009.87 1010.64 1010.71 1011.20 1011.55 1012.13 1012.31 1012.51 1013.15 1013.65 1013.45 1013.73 1013.74 1014.23 1014.12 1014.51
1007.84 1008.29 1008.60 1008.79 1009.56 1010.19 1010.52 1010.81 1011.07 1011.51 1011.77 1012.02 1012.08 1012.46 1012.93 1013.06 1013.20 1013.40 1013.38 1013.78 1013.53 1014.20
1008.97 1009.09 1009.56 1009.95 1010.33 1010.52 1010.78 1010.98 1011.41 1011.65 1011.86 1012.10 1012.23 1012.45 1012.56 1012.53 1012.60 1012.72 1012.36 1012.42 1013.36 1013.41
1009.78 1010.06 1010.42 1010.73 1011.01 1011.16 1011.30 1011.39 1011.44 1011.53 1011.67 1011.73 1011.80 1011.99 1012.07 1011.94 1011.90 1011.99 1012.13 1012.47 1012.48 1012.46
1011.10 1011.29 1011.50 1011.82 1011.96 1012.05 1012.05 1011.83 1011.69 1011.60 1011.57 1011.43 1011.54 1011.52 1011.45 1011.47 1011.49 1011.58 1011.66 1011.86 1011.99 1011.97
1011.85 1012.07 1012.40 1012.47 1012.44 1012.41 1012.52 1012.59 1012.55 1012.49 1012.34 1012.19 1012.00 1011.99 1011.88 1011.86 1011.75 1011.76 1011.57 1011.67 1011.73 1011.50
1013.09 1013.17 1013.26 1013.31 1013.22 1013.15 1013.11 1012.94 1012.76 1012.62 1012.48 1012.42 1012.50 1012.35 1012.07 1011.96 1011.89 1011.73 1011.58 1011.62 1011.65 1011.66
1013.80 1013.77 1013.77 1013.73 1013.75 1013.63 1013.56 1013.53 1013.51 1013.42 1013.17 1013.00 1012.71 1012.55 1012.24 1012.17 1012.05 1012.03 1011.75 1011.48 1011.33 1011.26
1014.73 1014.62 1014.78 1014.75 1014.43 1014.28 1014.13 1013.92 1013.85 1013.75 1013.59 1013.39 1013.34 1013.03 1012.54 1012.29 1012.06 1011.79 1011.69 1011.43 1011.10 1010.89
1015.04 1015.09 1014.87 1014.73 1014.50 1014.51 1014.44 1014.27 1014.20 1014.14 1013.91 1013.53 1013.14 1012.83 1012.42 1012.17 1011.90 1011.82 1011.84 1011.50 1011.24 1010.79
1015.75 1015.61 1015.27 1015.26 1015.41 1015.46 1015.14 1015.04 1014.75 1014.33 1013.96 1013.65 1013.28 1012.82 1012.32 1011.99 1011.69 1011.36 1011.18 1011.29 1011.21 1010.86
1016.06 1015.99 1016.00 1016.00 1015.83 1015.48 1015.30 1015.14 1015.01 1014.62 1014.14 1013.78 1013.37 1012.73 1012.35 1012.05 1011.52 1011.22 1010.75 1010.54 1010.47 1010.39
1016.74 1016.71 1016.55 1016.51 1016.18 1015.96 1015.82 1015.60 1015.37 1014.83 1014.16 1013.67 1013.10 1012.77 1012.34 1012.03 1011.79 1011.12 1010.60 1009.98 1009.81 1009.62
1016.71 1016.54 1016.48 1016.18 1015.97 1015.87 1015.58 1015.57 1015.60 1014.83 1014.19 1013.59 1013.01 1012.65 1012.10 1011.52 1011.28 1010.73 1010.02 1009.53 1009.13 1008.90
Wind_Speed
7 4 5 6 6 4 3 2 2 3 1 3 3 2 3 4 5 6 4 7 6 5
8 8 7 8 6 2 3 2 2 3 4 4 5 7 8 6 6 6 7 8 6 8
10 9 7 6 6 3 3 5 6 7 8 8 9 10 10 10 9 9 6 5 10 10
10 10 9 8 6 6 5 5 2 3 6 7 7 7 8 10 9 8 10 10 11 12
9 8 8 7 5 5 4 4 4 3 3 2 3 4 5 7 5 7 8 8 7 10
9 9 8 6 6 6 6 6 6 5 5 5 5 5 5 5 5 5 5 6 7 9
9 8 7 7 7 7 6 6 6 6 5 6 6 5 5 5 5 5 5 5 6 7
8 8 8 9 8 7 8 7 6 6 6 6 5 4 6 5 6 6 7 6 6 7
6 6 5 5 5 5 6 6 6 7 6 7 6 11 12 9 6 6 6 7 7 6
7 7 7 7 7 7 7 6 6 6 6 7 7 13 14 14 5 5 6 7 6 6
7 7 7 7 7 7 5 6 6 6 6 6 6 14 15 16 8 6 7 7 8 7
5 6 6 6 5 4 5 6 5 6 8 7 8 13 13 14 9 8 9 8 8 8
5 5 5 6 5 4 4 5 5 7 6 11 8 14 17 12 7 9 8 9 8 14
4 4 5 5 3 4 6 5 6 7 7 7 7 8 16 18 8 7 8 8 9 7
Wind_Direction
128 113 135 137 123 120 95 130 83 33 49 213 232 307 241 222 211 218 208 216 211 223
112 96 95 93 93 104 121 130 146 240 246 245 263 258 249 244 226 215 210 222 234 226
55 65 58 62 60 50 190 185 205 212 223 232 230 235 237 248 238 225 230 231 233 232
55 55 63 63 53 33 28 19 333 258 234 227 233 236 238 247 252 243 244 236 237 236
61 57 58 53 49 38 40 32 19 357 330 314 290 276 243 241 221 230 236 235 228 236
53 54 51 46 43 39 27 21 14 12 2 346 337 319 306 296 287 261 251 247 236 234
49 45 40 32 26 28 19 21 9 4 359 354 336 325 319 310 295 279 256 245 240 247
36 35 33 28 23 20 25 17 6 355 352 343 340 325 324 309 298 291 291 274 252 242
42 43 33 22 24 29 21 14 11 4 354 342 331 319 315 311 297 282 269 272 270 257
30 23 17 8 15 12 5 1 359 350 344 336 325 323 316 304 285 282 279 276 273 266
14 8 10 12 7 350 351 345 335 327 324 321 315 324 326 315 302 286 271 262 264 258
12 6 0 354 348 342 348 341 329 322 325 323 309 311 321 324 312 292 278 271 259 249
341 343 338 320 326 310 310 300 309 313 315 310 313 312 318 316 308 295 281 265 254 247
281 283 283 308 320 313 318 309 295 299 292 278 277 290 311 315 307 299 297 290 279 254